Weather History for Nome, AK

Change the Weather History Date:

Monday, January 28, 2013

  Actual Average Record
Temperature  
Mean Temperature 39 °F -  
Max Temperature 79 °F 13 °F 39 °F (1963)
Min Temperature -1 °F -3 °F -54 °F (1989)
Degree Days  
Heating Degree Days 26 60  
Month to date heating degree days 1388 1673  
Since 1 July heating degree days 7514 7491  
Cooling Degree Days 0    
Month to date cooling degree days 0  
Year to date cooling degree days 0  
Moisture  
Dew Point -12 °F    
Average Humidity 0    
Maximum Humidity 0    
Minimum Humidity 0    
Precipitation  
Precipitation 0.00 in 0.03 in 0.56 in (1922)
Month to date precipitation 0.92 0.85  
Year to date precipitation 0.92 0.85  
Snow  
Snow 0.00 in 0.40 in 6.50 in (1922)
Month to date snowfall 11.9 11.5  
Since 1 July snowfall 29.2 43.3  
Snow Depth 21.00 in    
Sea Level Pressure  
Sea Level Pressure 30.33 in    
Wind  
Wind Speed 17 mph (NE)    
Max Wind Speed 33 mph    
Max Gust Speed 45 mph    
Visibility 10 miles    
Events      
T = Trace of Precipitation, MM = Missing Value Source: NWS Daily Summary

Daily Weather History Graph

Daily Weather History Graph

Search for Another Location

Airport:

Trip Planner

Search our weather history database for the weather conditions in past years. The results will help you decide how hot, cold, wet, or windy it might be!

Date:

Astronomy

Jan. 28, 2013 Rise Set
Actual Time 10:55 AM AKST 5:34 PM AKST
Civil Twilight 9:55 AM AKST 6:34 PM AKST
Nautical Twilight 8:54 AM AKST 7:35 PM AKST
Astronomical Twilight 7:58 AM AKST 8:32 PM AKST
Moon 8:54 PM AKST (1/28) 10:24 AM AKST (1/28)
Length of Visible Light 8h 39m
Length of Day
6h 39m
Full, 97% of the Moon is Illuminated
Jan 28
Full
Feb 3
Last Quarter
Feb 9
New
Feb 17
First Quarter
Feb 25
Full

Hourly Weather History & Observations

Time (AKST) Temp. Windchill Dew Point Humidity Pressure Visibility Wind Dir Wind Speed Gust Speed Precip Events Conditions
12:53 AM 1.0 °F -10.3 °F -11.9 °F 55% 30.62 in 10.0 mi North 5.8 mph - N/A   Clear
1:53 AM -0.9 °F - -13.9 °F 54% 30.62 in 10.0 mi Calm Calm - N/A   Clear
2:53 AM 1.4 °F -6.2 °F -13.0 °F 51% 30.60 in 10.0 mi NNW 3.5 mph - N/A   Clear
3:53 AM 1.0 °F - -13.9 °F 50% 30.59 in 10.0 mi Calm Calm - N/A   Clear
4:53 AM -0.9 °F -8.9 °F -15.0 °F 52% 30.57 in 10.0 mi NE 3.5 mph - N/A   Clear
5:53 AM 1.0 °F -14.9 °F -13.9 °F 50% 30.55 in 10.0 mi NE 10.4 mph - N/A   Clear
6:53 AM 1.9 °F -14.7 °F -13.0 °F 50% 30.51 in 10.0 mi NNE 11.5 mph - N/A   Clear
7:53 AM 1.9 °F -17.5 °F -13.0 °F 50% 30.49 in 10.0 mi NNE 16.1 mph - N/A   Clear
8:53 AM 5.0 °F -14.7 °F -11.9 °F 46% 30.46 in 10.0 mi NNE 18.4 mph - N/A   Clear
9:53 AM 5.0 °F -15.7 °F -11.2 °F 47% 30.43 in 10.0 mi NE 20.7 mph 27.6 mph N/A   Clear
10:53 AM 5.0 °F -16.2 °F -11.2 °F 47% 30.40 in 10.0 mi NE 21.9 mph 27.6 mph N/A   Clear
11:53 AM 6.1 °F -12.2 °F -11.0 °F 45% 30.38 in 10.0 mi NE 16.1 mph - N/A   Partly Cloudy
12:53 PM 6.8 °F -10.7 °F -11.2 °F 44% 30.33 in 10.0 mi NE 15.0 mph - N/A   Mostly Cloudy
1:53 PM 6.8 °F -12.9 °F -14.8 °F 37% 30.30 in 10.0 mi NE 19.6 mph - N/A   Mostly Cloudy
2:53 PM 6.8 °F -13.8 °F -14.8 °F 37% 30.26 in 10.0 mi NE 21.9 mph 29.9 mph N/A   Scattered Clouds
3:53 PM 5.0 °F -19.0 °F -20.9 °F 29% 30.20 in 10.0 mi NE 29.9 mph 35.7 mph 0.00 in   Scattered Clouds
4:53 PM 5.0 °F -17.1 °F -11.0 °F 48% 30.17 in 10.0 mi NE 24.2 mph 29.9 mph N/A   Scattered Clouds
5:53 PM 5.0 °F -15.7 °F -9.9 °F 50% 30.15 in 10.0 mi NE 20.7 mph 29.9 mph N/A   Scattered Clouds
6:53 PM 5.0 °F -16.7 °F -9.9 °F 50% 30.13 in 10.0 mi NE 23.0 mph 29.9 mph N/A   Scattered Clouds
7:53 PM 8.1 °F -13.4 °F -9.9 °F 44% 30.10 in 10.0 mi ENE 25.3 mph 34.5 mph N/A   Scattered Clouds
8:53 PM 7.0 °F -15.3 °F -8.0 °F 51% 30.06 in 10.0 mi NE 26.5 mph 36.8 mph N/A   Scattered Clouds
9:53 PM 8.1 °F -11.7 °F -8.0 °F 48% 30.03 in 10.0 mi ENE 20.7 mph 31.1 mph 0.00 in   Scattered Clouds
10:53 PM 8.1 °F -15.2 °F -7.1 °F 50% 30.00 in 10.0 mi ENE 31.1 mph 42.6 mph N/A   Scattered Clouds
11:53 PM 7.0 °F -17.0 °F -6.0 °F 55% 29.97 in 7.0 mi ENE 32.2 mph 44.9 mph N/A   Scattered Clouds